sat.trackr.live / text

‹ back to catalog

STARLINK-35290

NORAD 65846 · 2025-221Z

PAYLOAD ACTIVE UNKNOWN

§ Identity

Operator
Country
US
Launch date
2025-09-29
Launch site
AFWTR
Launch vehicle
Mass (kg)
RCS (m²)

Purposes: comms

External: N2YO · Heavens-Above · Gunter

§ Orbital elements

Epoch: 2026-05-25T04:00:03.998880Z

Period
93.90 min
Inclination
53.1589°
Eccentricity
0.0001107
Mean motion
15.33549806 rev/d
Perigee alt
464.5 km
Apogee alt
466.0 km
Semi-major
6,843.4 km
B*
5.4988e-4
RAAN
92.9232°
Arg perigee
89.3808°
Mean anomaly
320.4961°
Rev number
576

§ Raw data

STARLINK-352901 65846U 25221Z   26145.16671295  .00017755  00000+0  54988-3 0  99972 65846  53.1589  92.9232 0001107  89.3808 320.4961 15.33549806  5761

JSON: /api/v1/satellites/65846 · /tle

For live sub-satellite position, see the globe view (requires WebGL).

§ Visibility from observer

Set your observer location to see the next 7 days of passes ≥ 10°. The values pass through the URL so the page stays shareable.

No JS? Fill the form by hand. The geolocation button needs JavaScript.